Orbital Elements at Epoch 2459000.5 (2020-May-31.0) TDB
Reference: JPL 1 (heliocentric ecliptic J2000)
Element | Value | Uncertainty (1-sigma) | Units |
e | .480490869210115 | 1.7544e-05 | |
a | 31.64915117461094 | 0.0012017 | au |
q | 16.44202301695979 | 7.0022e-05 | au |
i | 7.902775678083428 | 1.2265e-05 | deg |
node | 341.8484122150219 | 0.00017903 | deg |
peri | 53.47027394046727 | 0.00054758 | deg |
M | 18.03256240429885 | 0.0011278 | deg |
tp | 2455742.909647773677 (2011-Jun-30.40964777) | 0.028863 | TDB |
period | 65034.15879053905 178.05 | 3.7041 0.01014 | d yr |
n | .005535552495719705 | 3.1528e-07 | deg/d |
Q | 46.85627933226208 | 0.0017792 | au |
|
| | Orbit Determination Parameters
Additional Information
|